QPF
0.00 0.00 0.00 0.00 0.00 0.00 0.00 0.00 0.00 0.00 0.00 0.00 0.00 0.00 0.00 0.00 0.00 0.00 0.00 0.00 0.00 0.00 0.00 0.00 0.00 0.00 0.00 0.00 0.00 0.00 0.00 0.00 0.00 0.00 0.00 0.00 0.00 0.00 0.00 0.00 0.00 0.00 0.00 0.00 0.00 0.00 0.00 0.00 0.00 0.00 0.00 0.00 0.00 0.00 0.00 0.00 0.00 0.00 0.00 0.00 0.00 0.00 0.00 0.00 0.00 0.00 0.00 0.00 0.00
0.00 0.00 0.00 0.00 0.00 0.00 0.00 0.00 0.00 0.00 0.00 0.00 0.00 0.00 0.00 0.00 0.00 0.00 0.00 0.00 0.00 0.00 0.00 0.00 0.00 0.00 0.00 0.00 0.00 0.00 0.00 0.00 0.00 0.00 0.00 0.00 0.00 0.00 0.00 0.00 0.00 0.00 0.00 0.00 0.00 0.00 0.00 0.00 0.00 0.00 0.00 0.00 0.00 0.00 0.00 0.00 0.00 0.00 0.00 0.00 0.00 0.00 0.00 0.00 0.00 0.00 0.00 0.00 0.00
0.00 0.00 0.00 0.00 0.00 0.00 0.00 0.00 0.00 0.00 0.00 0.00 0.00 0.00 0.00 0.00 0.00 0.00 0.00 0.00 0.00 0.00 0.00 0.00 0.00 0.00 0.00 0.00 0.00 0.00 0.00 0.00 0.00 0.00 0.00 0.00 0.00 0.00 0.00 0.00 0.00 0.00 0.00 0.00 0.00 0.00 0.00 0.00 0.00 0.00 0.00 0.00 0.00 0.00 0.00 0.00 0.00 0.00 0.00 0.00 0.00 0.00 0.00 0.00 0.00 0.00 0.00 0.00 0.00
0.00 0.00 0.00 0.00 0.00 0.00 0.00 0.00 0.00 0.00 0.00 0.00 0.00 0.00 0.00 0.00 0.00 0.00 0.00 0.00 0.00 0.00 0.00 0.00 0.00 0.00 0.00 0.00 0.00 0.00 0.00 0.00 0.00 0.00 0.00 0.00 0.00 0.00 0.00 0.00 0.00 0.00 0.00 0.00 0.00 0.00 0.00 0.00 0.00 0.00 0.00 0.00 0.00 0.00 0.00 0.00 0.00 0.00 0.00 0.01 0.00 0.00 0.00 0.00 0.00 0.00 0.00 0.00 0.00
0.00 0.00 0.00 0.00 0.00 0.00 0.00 0.00 0.00 0.00 0.00 0.00 0.00 0.00 0.00 0.00 0.00 0.00 0.00 0.00 0.00 0.00 0.00 0.00 0.00 0.00 0.00 0.00 0.00 0.00 0.00 0.00 0.00 0.00 0.00 0.00 0.00 0.00 0.00 0.00 0.00 0.00 0.00 0.00 0.00 0.00 0.00 0.00 0.00 0.00 0.00 0.00 0.00 0.00 0.00 0.00 0.00 0.00 0.01 0.02 0.02 0.01 0.01 0.00 0.00 0.00 0.00 0.00 0.00
0.00 0.00 0.00 0.00 0.00 0.00 0.00 0.00 0.00 0.00 0.00 0.00 0.00 0.00 0.00 0.00 0.00 0.00 0.00 0.00 0.00 0.00 0.00 0.00 0.00 0.00 0.00 0.00 0.00 0.00 0.00 0.00 0.00 0.00 0.00 0.00 0.00 0.00 0.00 0.00 0.00 0.00 0.00 0.00 0.00 0.00 0.00 0.00 0.00 0.00 0.00 0.00 0.00 0.00 0.00 0.00 0.00 0.01 0.02 0.01 0.01 0.00 0.00 0.00 0.00 0.00 0.00 0.00 0.00
0.00 0.00 0.00 0.00 0.00 0.00 0.00 0.00 0.00 0.00 0.00 0.00 0.00 0.00 0.00 0.00 0.00 0.00 0.00 0.00 0.00 0.00 0.00 0.00 0.00 0.00 0.00 0.00 0.00 0.00 0.00 0.00 0.00 0.00 0.00 0.00 0.00 0.00 0.00 0.00 0.00 0.00 0.00 0.00 0.00 0.00 0.00 0.00 0.00 0.00 0.00 0.00 0.00 0.00 0.00 0.00 0.00 0.01 0.01 0.00 0.00 0.00 0.00 0.00 0.00 0.00 0.00 0.00 0.00
0.00 0.00 0.00 0.00 0.00 0.00 0.00 0.00 0.00 0.00 0.00 0.00 0.00 0.00 0.00 0.00 0.00 0.00 0.00 0.00 0.00 0.00 0.00 0.00 0.00 0.00 0.00 0.00 0.00 0.00 0.00 0.00 0.00 0.00 0.00 0.00 0.00 0.00 0.00 0.00 0.00 0.00 0.00 0.00 0.00 0.00 0.00 0.00 0.00 0.00 0.00 0.00 0.00 0.00 0.00 0.00 0.00 0.00 0.00 0.00 0.00 0.00 0.00 0.00 0.00 0.00 0.00 0.00 0.00
0.00 0.00 0.00 0.00 0.00 0.00 0.00 0.00 0.00 0.00 0.00 0.00 0.00 0.00 0.00 0.00 0.00 0.00 0.00 0.00 0.00 0.00 0.00 0.00 0.00 0.00 0.00 0.00 0.00 0.00 0.00 0.00 0.00 0.00 0.00 0.00 0.00 0.00 0.00 0.00 0.00 0.00 0.00 0.00 0.00 0.00 0.00 0.00 0.00 0.00 0.00 0.00 0.00 0.00 0.00 0.00 0.00 0.00 0.00 0.00 0.00 0.00 0.00 0.00 0.00 0.00 0.00 0.00 0.00
0.00 0.00 0.00 0.00 0.00 0.00 0.00 0.00 0.00 0.00 0.00 0.00 0.00 0.00 0.00 0.00 0.00 0.00 0.00 0.00 0.00 0.00 0.00 0.00 0.00 0.00 0.00 0.00 0.00 0.00 0.00 0.00 0.00 0.00 0.00 0.00 0.00 0.00 0.00 0.00 0.00 0.00 0.00 0.00 0.00 0.00 0.00 0.00 0.00 0.00 0.00 0.00 0.00 0.00 0.00 0.00 0.00 0.00 0.00 0.00 0.00 0.00 0.00 0.00 0.00 0.00 0.00 0.00 0.00
0.00 0.00 0.00 0.00 0.00 0.00 0.00 0.00 0.00 0.00 0.00 0.00 0.00 0.00 0.00 0.00 0.00 0.00 0.00 0.00 0.00 0.00 0.00 0.00 0.00 0.00 0.00 0.00 0.00 0.00 0.00 0.00 0.00 0.00 0.00 0.00 0.00 0.00 0.00 0.00 0.00 0.00 0.00 0.00 0.00 0.00 0.00 0.00 0.00 0.00 0.00 0.00 0.00 0.00 0.00 0.00 0.00 0.00 0.00 0.00 0.00 0.00 0.00 0.00 0.00 0.00 0.00 0.00 0.00
0.00 0.00 0.00 0.00 0.00 0.00 0.00 0.00 0.00 0.00 0.00 0.00 0.00 0.00 0.00 0.00 0.00 0.00 0.00 0.00 0.00 0.00 0.00 0.00 0.00 0.00 0.00 0.00 0.00 0.00 0.00 0.00 0.00 0.00 0.00 0.00 0.00 0.00 0.00 0.00 0.00 0.00 0.00 0.00 0.00 0.00 0.00 0.00 0.00 0.00 0.00 0.00 0.00 0.00 0.00 0.00 0.00 0.00 0.00 0.00 0.00 0.00 0.00 0.00 0.00 0.00 0.00 0.00 0.00
0.00 0.00 0.00 0.00 0.00 0.00 0.00 0.00 0.00 0.00 0.00 0.00 0.00 0.00 0.00 0.00 0.00 0.00 0.00 0.00 0.00 0.00 0.00 0.00 0.00 0.00 0.00 0.00 0.00 0.00 0.00 0.00 0.00 0.00 0.00 0.00 0.00 0.00 0.00 0.00 0.00 0.00 0.00 0.00 0.00 0.00 0.00 0.00 0.00 0.00 0.00 0.00 0.00 0.00 0.00 0.00 0.00 0.00 0.00 0.00 0.00 0.00 0.00 0.00 0.00 0.00 0.00 0.00 0.00
0.00 0.00 0.00 0.00 0.00 0.00 0.00 0.00 0.00 0.00 0.00 0.00 0.00 0.00 0.00 0.00 0.00 0.00 0.00 0.00 0.00 0.00 0.00 0.00 0.00 0.00 0.00 0.00 0.00 0.00 0.00 0.00 0.00 0.00 0.00 0.00 0.00 0.00 0.00 0.00 0.00 0.00 0.00 0.00 0.00 0.00 0.00 0.00 0.00 0.00 0.00 0.00 0.00 0.00 0.00 0.00 0.00 0.00 0.00 0.00 0.00 0.00 0.00 0.00 0.00 0.00 0.00 0.00 0.00
0.00 0.00 0.00 0.00 0.00 0.00 0.00 0.00 0.00 0.00 0.00 0.00 0.00 0.00 0.00 0.00 0.00 0.00 0.00 0.00 0.00 0.00 0.00 0.00 0.00 0.00 0.00 0.00 0.00 0.00 0.00 0.00 0.00 0.00 0.00 0.00 0.00 0.00 0.00 0.00 0.00 0.00 0.00 0.00 0.00 0.00 0.00 0.00 0.00 0.00 0.00 0.00 0.00 0.00 0.00 0.00 0.00 0.00 0.00 0.00 0.00 0.00 0.00 0.00 0.00 0.00 0.00 0.00 0.00
0.00 0.00 0.00 0.00 0.00 0.00 0.00 0.00 0.00 0.00 0.00 0.00 0.00 0.00 0.00 0.00 0.00 0.00 0.00 0.00 0.00 0.00 0.00 0.00 0.00 0.00 0.00 0.00 0.00 0.00 0.00 0.00 0.00 0.00 0.00 0.00 0.00 0.00 0.00 0.00 0.00 0.00 0.00 0.00 0.00 0.00 0.00 0.00 0.00 0.00 0.00 0.00 0.00 0.00 0.00 0.00 0.00 0.00 0.00 0.00 0.00 0.00 0.00 0.00 0.00 0.00 0.00 0.00 0.00
0.00 0.00 0.00 0.00 0.00 0.00 0.00 0.00 0.00 0.00 0.00 0.00 0.00 0.00 0.00 0.00 0.00 0.00 0.00 0.00 0.00 0.00 0.00 0.00 0.00 0.00 0.00 0.00 0.00 0.00 0.00 0.00 0.00 0.00 0.00 0.00 0.00 0.00 0.00 0.00 0.00 0.00 0.00 0.00 0.00 0.00 0.00 0.00 0.00 0.00 0.00 0.00 0.00 0.00 0.00 0.00 0.00 0.00 0.00 0.00 0.00 0.00 0.00 0.00 0.00 0.00 0.00 0.00 0.00
0.00 0.00 0.00 0.00 0.00 0.00 0.00 0.00 0.00 0.00 0.00 0.00 0.00 0.00 0.00 0.00 0.00 0.00 0.00 0.00 0.00 0.00 0.00 0.00 0.00 0.00 0.00 0.00 0.00 0.00 0.00 0.00 0.00 0.00 0.00 0.00 0.00 0.00 0.00 0.00 0.00 0.00 0.00 0.00 0.00 0.00 0.00 0.00 0.00 0.00 0.00 0.00 0.00 0.00 0.00 0.00 0.00 0.00 0.00 0.00 0.00 0.00 0.00 0.00 0.00 0.00 0.00 0.00 0.00
0.00 0.00 0.00 0.00 0.00 0.00 0.00 0.00 0.00 0.00 0.00 0.00 0.00 0.00 0.00 0.00 0.00 0.00 0.00 0.00 0.00 0.00 0.00 0.00 0.00 0.00 0.00 0.00 0.00 0.00 0.00 0.00 0.00 0.00 0.00 0.00 0.00 0.00 0.00 0.00 0.00 0.00 0.00 0.00 0.00 0.00 0.00 0.00 0.00 0.00 0.00 0.00 0.00 0.00 0.00 0.00 0.00 0.00 0.00 0.00 0.00 0.00 0.00 0.00 0.00 0.00 0.00 0.00 0.00
0.00 0.00 0.00 0.00 0.00 0.00 0.00 0.00 0.00 0.00 0.00 0.00 0.00 0.00 0.00 0.00 0.00 0.00 0.00 0.00 0.00 0.00 0.00 0.00 0.00 0.00 0.00 0.00 0.00 0.00 0.00 0.00 0.00 0.00 0.00 0.00 0.00 0.00 0.00 0.00 0.00 0.00 0.00 0.00 0.00 0.00 0.00 0.00 0.00 0.00 0.00 0.00 0.00 0.00 0.00 0.00 0.00 0.00 0.00 0.00 0.00 0.00 0.00 0.00 0.00 0.00 0.00 0.00 0.00
0.00 0.00 0.00 0.00 0.00 0.00 0.00 0.00 0.00 0.00 0.00 0.00 0.00 0.00 0.00 0.00 0.00 0.00 0.00 0.00 0.00 0.00 0.00 0.00 0.00 0.00 0.00 0.00 0.00 0.00 0.00 0.00 0.00 0.00 0.00 0.00 0.00 0.00 0.00 0.00 0.00 0.00 0.00 0.00 0.00 0.00 0.00 0.00 0.00 0.00 0.00 0.00 0.00 0.00 0.00 0.00 0.00 0.00 0.00 0.00 0.00 0.00 0.00 0.00 0.00 0.00 0.00 0.00 0.00
0.00 0.00 0.00 0.00 0.00 0.00 0.00 0.00 0.00 0.00 0.00 0.00 0.00 0.00 0.00 0.00 0.00 0.00 0.00 0.00 0.00 0.00 0.00 0.00 0.00 0.00 0.00 0.00 0.00 0.00 0.00 0.00 0.00 0.00 0.00 0.00 0.00 0.00 0.00 0.00 0.00 0.00 0.00 0.00 0.00 0.00 0.00 0.00 0.00 0.00 0.00 0.00 0.00 0.00 0.00 0.00 0.00 0.00 0.00 0.00 0.00 0.00 0.00 0.00 0.00 0.00 0.00 0.00 0.00
0.00 0.00 0.00 0.00 0.00 0.00 0.00 0.00 0.00 0.00 0.00 0.00 0.00 0.00 0.00 0.00 0.00 0.00 0.00 0.00 0.00 0.00 0.00 0.00 0.00 0.00 0.00 0.00 0.00 0.00 0.00 0.00 0.00 0.00 0.00 0.00 0.00 0.00 0.00 0.00 0.00 0.00 0.00 0.00 0.00 0.00 0.00 0.00 0.00 0.00 0.00 0.00 0.00 0.00 0.00 0.00 0.00 0.00 0.00 0.00 0.00 0.00 0.00 0.00 0.00 0.00 0.00 0.00 0.00
0.00 0.00 0.00 0.00 0.00 0.00 0.00 0.00 0.00 0.00 0.00 0.00 0.00 0.00 0.00 0.00 0.00 0.00 0.00 0.00 0.00 0.00 0.00 0.00 0.00 0.00 0.00 0.00 0.00 0.00 0.00 0.00 0.00 0.00 0.00 0.00 0.00 0.00 0.00 0.00 0.00 0.00 0.00 0.00 0.00 0.00 0.00 0.00 0.00 0.00 0.00 0.00 0.00 0.00 0.00 0.00 0.00 0.00 0.00 0.00 0.00 0.00 0.00 0.00 0.00 0.00 0.00 0.00 0.00
0.00 0.00 0.00 0.00 0.00 0.00 0.00 0.00 0.00 0.00 0.00 0.00 0.00 0.00 0.00 0.00 0.00 0.00 0.00 0.00 0.00 0.00 0.00 0.00 0.00 0.00 0.00 0.00 0.00 0.00 0.00 0.00 0.00 0.00 0.00 0.00 0.00 0.00 0.00 0.00 0.00 0.00 0.00 0.00 0.00 0.00 0.00 0.00 0.00 0.00 0.00 0.00 0.00 0.00 0.00 0.00 0.00 0.00 0.00 0.00 0.00 0.00 0.00 0.00 0.00 0.00 0.00 0.00 0.00
0.00 0.00 0.00 0.00 0.00 0.00 0.00 0.00 0.00 0.00 0.00 0.00 0.00 0.00 0.00 0.00 0.00 0.00 0.00 0.00 0.00 0.00 0.00 0.00 0.00 0.00 0.00 0.00 0.00 0.00 0.00 0.00 0.00 0.00 0.00 0.00 0.00 0.00 0.00 0.00 0.00 0.00 0.00 0.00 0.00 0.00 0.00 0.00 0.00 0.00 0.00 0.00 0.00 0.00 0.00 0.00 0.00 0.00 0.00 0.00 0.00 0.00 0.00 0.00 0.00 0.00 0.00 0.00 0.00
0.00 0.00 0.00 0.00 0.00 0.00 0.00 0.00 0.00 0.00 0.00 0.00 0.00 0.00 0.00 0.00 0.00 0.00 0.00 0.00 0.00 0.00 0.00 0.00 0.00 0.00 0.00 0.00 0.00 0.00 0.00 0.00 0.00 0.00 0.00 0.00 0.00 0.00 0.00 0.00 0.00 0.00 0.00 0.00 0.00 0.00 0.00 0.00 0.00 0.00 0.00 0.00 0.00 0.00 0.00 0.00 0.00 0.00 0.00 0.00 0.00 0.00 0.00 0.00 0.00 0.00 0.00 0.00 0.00
0.00 0.00 0.00 0.00 0.00 0.00 0.00 0.00 0.00 0.00 0.00 0.00 0.00 0.00 0.00 0.00 0.00 0.00 0.00 0.00 0.00 0.00 0.00 0.00 0.00 0.00 0.00 0.00 0.00 0.00 0.00 0.00 0.00 0.00 0.00 0.00 0.00 0.00 0.00 0.00 0.00 0.00 0.00 0.00 0.00 0.00 0.00 0.00 0.00 0.00 0.00 0.00 0.00 0.00 0.00 0.00 0.00 0.00 0.00 0.00 0.00 0.00 0.00 0.00 0.00 0.00 0.00 0.00 0.00
0.00 0.00 0.00 0.00 0.00 0.00 0.00 0.00 0.00 0.00 0.00 0.00 0.00 0.00 0.00 0.00 0.00 0.00 0.00 0.00 0.00 0.00 0.00 0.00 0.00 0.00 0.00 0.00 0.00 0.00 0.00 0.00 0.00 0.00 0.00 0.00 0.00 0.00 0.00 0.00 0.00 0.00 0.00 0.00 0.00 0.00 0.00 0.00 0.00 0.00 0.00 0.00 0.00 0.00 0.00 0.00 0.00 0.00 0.00 0.00 0.00 0.00 0.00 0.00 0.00 0.00 0.00 0.00 0.00
0.00 0.00 0.00 0.00 0.00 0.00 0.00 0.00 0.00 0.00 0.00 0.00 0.00 0.00 0.00 0.00 0.00 0.00 0.00 0.00 0.00 0.00 0.00 0.00 0.00 0.00 0.00 0.00 0.00 0.00 0.00 0.00 0.00 0.00 0.00 0.00 0.00 0.00 0.00 0.00 0.00 0.00 0.00 0.00 0.00 0.00 0.00 0.00 0.00 0.00 0.00 0.00 0.00 0.00 0.00 0.00 0.00 0.00 0.00 0.00 0.00 0.00 0.00 0.00 0.00 0.00 0.00 0.00 0.00
0.00 0.00 0.00 0.00 0.00 0.00 0.00 0.00 0.00 0.00 0.00 0.00 0.00 0.00 0.00 0.00 0.00 0.00 0.00 0.00 0.00 0.00 0.00 0.00 0.00 0.00 0.00 0.00 0.00 0.00 0.00 0.00 0.00 0.00 0.00 0.00 0.00 0.00 0.00 0.00 0.00 0.00 0.00 0.00 0.00 0.00 0.00 0.00 0.00 0.00 0.00 0.00 0.00 0.00 0.00 0.00 0.00 0.00 0.00 0.00 0.00 0.00 0.00 0.00 0.00 0.00 0.00 0.00 0.00
0.00 0.00 0.00 0.00 0.00 0.00 0.00 0.00 0.00 0.00 0.00 0.00 0.00 0.00 0.00 0.00 0.00 0.00 0.00 0.00 0.00 0.00 0.00 0.00 0.00 0.00 0.00 0.00 0.00 0.00 0.00 0.00 0.00 0.00 0.00 0.00 0.00 0.00 0.00 0.00 0.00 0.00 0.00 0.00 0.00 0.00 0.00 0.00 0.00 0.00 0.00 0.00 0.00 0.00 0.00 0.00 0.00 0.00 0.00 0.00 0.00 0.00 0.00 0.00 0.00 0.00 0.00 0.00 0.00
0.00 0.00 0.00 0.00 0.00 0.00 0.00 0.00 0.00 0.00 0.00 0.00 0.00 0.00 0.00 0.00 0.00 0.00 0.00 0.00 0.00 0.00 0.00 0.00 0.00 0.00 0.00 0.00 0.00 0.00 0.00 0.00 0.00 0.00 0.00 0.00 0.00 0.00 0.00 0.00 0.00 0.00 0.00 0.00 0.00 0.00 0.00 0.00 0.00 0.00 0.00 0.00 0.00 0.00 0.00 0.00 0.00 0.00 0.00 0.00 0.00 0.00 0.00 0.00 0.00 0.00 0.00 0.00 0.00
0.00 0.00 0.00 0.00 0.00 0.00 0.00 0.00 0.00 0.00 0.00 0.00 0.00 0.00 0.00 0.00 0.00 0.00 0.00 0.00 0.00 0.00 0.00 0.00 0.00 0.00 0.00 0.00 0.00 0.00 0.00 0.00 0.00 0.00 0.00 0.00 0.00 0.00 0.00 0.00 0.00 0.00 0.00 0.00 0.00 0.00 0.00 0.00 0.00 0.00 0.00 0.00 0.00 0.00 0.00 0.00 0.00 0.00 0.00 0.00 0.00 0.00 0.00 0.00 0.00 0.00 0.00 0.00 0.00
0.00 0.00 0.00 0.00 0.00 0.00 0.00 0.00 0.00 0.00 0.00 0.00 0.00 0.00 0.00 0.00 0.00 0.00 0.00 0.00 0.00 0.00 0.00 0.00 0.00 0.00 0.00 0.00 0.00 0.00 0.00 0.00 0.00 0.00 0.00 0.00 0.00 0.00 0.00 0.00 0.00 0.00 0.00 0.00 0.00 0.00 0.00 0.00 0.00 0.00 0.00 0.00 0.00 0.00 0.00 0.00 0.00 0.00 0.00 0.00 0.00 0.00 0.00 0.00 0.00 0.00 0.00 0.00 0.00
0.00 0.00 0.00 0.00 0.00 0.00 0.00 0.00 0.00 0.00 0.00 0.00 0.00 0.00 0.00 0.00 0.00 0.00 0.00 0.00 0.00 0.00 0.00 0.00 0.00 0.00 0.00 0.00 0.00 0.00 0.00 0.00 0.00 0.00 0.00 0.00 0.00 0.00 0.00 0.00 0.00 0.00 0.00 0.00 0.00 0.00 0.00 0.00 0.00 0.00 0.00 0.00 0.00 0.00 0.00 0.00 0.00 0.00 0.00 0.00 0.00 0.00 0.00 0.00 0.00 0.00 0.00 0.00 0.00
0.00 0.00 0.00 0.00 0.00 0.00 0.00 0.00 0.00 0.00 0.00 0.00 0.00 0.00 0.00 0.00 0.00 0.00 0.00 0.00 0.00 0.00 0.00 0.00 0.00 0.00 0.00 0.00 0.00 0.00 0.00 0.00 0.00 0.00 0.00 0.00 0.00 0.00 0.00 0.00 0.00 0.00 0.00 0.00 0.00 0.00 0.00 0.00 0.00 0.00 0.00 0.00 0.00 0.00 0.00 0.00 0.00 0.00 0.00 0.00 0.00 0.00 0.00 0.00 0.00 0.00 0.00 0.00 0.00
0.00 0.00 0.00 0.00 0.00 0.00 0.00 0.00 0.00 0.00 0.00 0.00 0.00 0.00 0.00 0.00 0.00 0.00 0.00 0.00 0.00 0.00 0.00 0.00 0.00 0.00 0.00 0.00 0.00 0.00 0.00 0.00 0.00 0.00 0.00 0.00 0.00 0.00 0.00 0.00 0.00 0.00 0.00 0.00 0.00 0.00 0.00 0.00 0.00 0.00 0.00 0.00 0.00 0.00 0.00 0.00 0.00 0.00 0.00 0.00 0.00 0.00 0.00 0.00 0.00 0.00 0.00 0.00 0.00
0.00 0.00 0.00 0.00 0.00 0.00 0.00 0.00 0.00 0.00 0.00 0.00 0.00 0.00 0.00 0.00 0.00 0.00 0.00 0.00 0.00 0.00 0.00 0.00 0.00 0.00 0.00 0.00 0.00 0.00 0.00 0.00 0.00 0.00 0.00 0.00 0.00 0.00 0.00 0.00 0.00 0.00 0.00 0.00 0.00 0.00 0.00 0.00 0.00 0.00 0.00 0.00 0.00 0.00 0.00 0.00 0.00 0.00 0.00 0.00 0.00 0.00 0.00 0.00 0.00 0.00 0.00 0.00 0.00
0.00 0.00 0.00 0.00 0.00 0.00 0.00 0.00 0.00 0.00 0.00 0.00 0.00 0.00 0.00 0.00 0.00 0.00 0.00 0.00 0.00 0.00 0.00 0.00 0.00 0.00 0.00 0.00 0.00 0.00 0.00 0.00 0.00 0.00 0.00 0.00 0.00 0.00 0.00 0.00 0.00 0.00 0.00 0.00 0.00 0.00 0.00 0.00 0.00 0.00 0.00 0.00 0.00 0.00 0.00 0.00 0.00 0.00 0.00 0.00 0.00 0.00 0.00 0.00 0.00 0.00 0.00 0.00 0.00
0.00 0.00 0.00 0.00 0.00 0.00 0.00 0.00 0.00 0.00 0.00 0.00 0.00 0.00 0.00 0.00 0.00 0.00 0.00 0.00 0.00 0.00 0.00 0.00 0.00 0.00 0.00 0.00 0.00 0.00 0.00 0.00 0.00 0.00 0.00 0.00 0.00 0.00 0.00 0.00 0.00 0.00 0.00 0.00 0.00 0.00 0.00 0.00 0.00 0.00 0.00 0.00 0.00 0.00 0.00 0.00 0.00 0.00 0.00 0.00 0.00 0.00 0.00 0.00 0.00 0.00 0.00 0.00 0.00
MSLP
1023.85 1023.97 1024.05 1024.09 1024.05 1024.01 1024.01 1024.01 1024.17 1024.17 1024.09 1024.01 1023.93 1023.89 1023.89 1023.89 1023.85 1023.85 1023.89 1023.89 1023.89 1023.89 1023.97 1024.01 1024.01 1024.01 1024.01 1024.01 1024.01 1023.97 1023.93 1023.89 1023.89 1023.93 1023.93 1023.85 1023.73 1023.69 1023.69 1023.73 1023.77 1023.81 1023.81 1023.77 1023.77 1023.73 1023.69 1023.65 1023.65 1023.61 1023.57 1023.61 1023.65 1023.69 1023.77 1023.89 1023.93 1023.85 1023.73 1023.61 1023.57 1023.49 1023.45 1023.37 1023.33 1023.25 1023.17 1023.13 1023.09
1023.77 1023.89 1023.97 1024.05 1024.01 1024.01 1023.97 1024.01 1024.01 1024.01 1024.01 1024.01 1024.01 1023.97 1023.93 1023.93 1023.93 1023.89 1023.89 1023.93 1023.93 1024.01 1024.01 1024.05 1024.05 1024.05 1024.05 1024.05 1024.05 1024.01 1023.93 1023.89 1023.89 1023.89 1023.89 1023.77 1023.73 1023.73 1023.73 1023.77 1023.85 1023.89 1023.89 1023.89 1023.89 1023.89 1023.85 1023.85 1023.85 1023.81 1023.73 1023.73 1023.69 1023.69 1023.73 1023.81 1023.85 1023.73 1023.61 1023.53 1023.49 1023.45 1023.41 1023.37 1023.33 1023.29 1023.25 1023.17 1023.13
1023.81 1023.81 1023.85 1023.85 1023.89 1023.93 1023.93 1023.93 1023.93 1023.93 1023.93 1023.97 1024.01 1024.01 1024.01 1024.01 1024.01 1024.01 1024.01 1024.01 1024.01 1024.01 1024.05 1024.13 1024.13 1024.13 1024.13 1024.09 1024.09 1024.01 1023.97 1023.93 1023.89 1023.85 1023.77 1023.73 1023.73 1023.77 1023.85 1023.89 1023.89 1023.93 1023.97 1024.01 1024.01 1024.01 1024.01 1024.01 1023.97 1023.89 1023.81 1023.73 1023.69 1023.65 1023.61 1023.61 1023.61 1023.61 1023.61 1023.57 1023.57 1023.57 1023.53 1023.49 1023.45 1023.45 1023.41 1023.33 1023.25
1023.85 1023.85 1023.89 1023.89 1023.93 1023.93 1023.93 1023.97 1023.93 1023.93 1023.97 1024.01 1024.01 1024.01 1024.01 1024.09 1024.09 1024.09 1024.09 1024.05 1024.01 1024.05 1024.13 1024.17 1024.17 1024.17 1024.17 1024.17 1024.09 1024.05 1024.01 1023.93 1023.89 1023.81 1023.73 1023.73 1023.73 1023.81 1023.89 1023.97 1023.97 1023.97 1023.97 1024.01 1024.01 1024.01 1024.01 1024.01 1023.93 1023.85 1023.73 1023.69 1023.61 1023.61 1023.57 1023.53 1023.57 1023.65 1023.73 1023.85 1023.85 1023.81 1023.77 1023.69 1023.61 1023.53 1023.45 1023.37 1023.33
1023.89 1023.97 1024.01 1024.05 1024.01 1023.97 1023.97 1023.97 1023.97 1023.97 1023.97 1024.01 1024.01 1024.01 1024.05 1024.13 1024.13 1024.13 1024.09 1024.05 1024.05 1024.13 1024.17 1024.25 1024.29 1024.25 1024.25 1024.21 1024.13 1024.05 1024.01 1023.97 1023.93 1023.89 1023.77 1023.77 1023.81 1023.89 1023.93 1024.01 1024.01 1023.97 1023.97 1023.93 1023.93 1023.93 1023.97 1023.97 1023.89 1023.85 1023.81 1023.81 1023.73 1023.69 1023.69 1023.73 1023.77 1023.93 1024.05 1024.13 1024.09 1024.01 1023.89 1023.73 1023.61 1023.45 1023.37 1023.33 1023.25
1023.89 1024.01 1024.05 1024.05 1024.01 1023.97 1023.93 1023.93 1023.97 1023.97 1023.97 1024.01 1024.01 1024.05 1024.13 1024.17 1024.21 1024.21 1024.17 1024.13 1024.13 1024.17 1024.21 1024.29 1024.29 1024.29 1024.25 1024.21 1024.17 1024.05 1024.01 1024.01 1023.97 1023.89 1023.85 1023.85 1023.89 1023.93 1023.97 1023.97 1023.93 1023.93 1023.93 1023.89 1023.89 1023.97 1024.05 1024.09 1024.01 1024.01 1024.01 1024.01 1023.97 1023.93 1023.93 1023.97 1024.01 1024.01 1024.05 1024.05 1023.97 1023.81 1023.61 1023.53 1023.45 1023.41 1023.33 1023.33 1023.25
1023.85 1023.89 1023.89 1023.93 1023.89 1023.89 1023.89 1023.89 1023.89 1023.93 1023.97 1023.97 1024.01 1024.09 1024.17 1024.25 1024.29 1024.29 1024.25 1024.21 1024.17 1024.17 1024.21 1024.25 1024.25 1024.25 1024.25 1024.21 1024.17 1024.05 1024.01 1024.01 1024.01 1024.01 1023.97 1023.93 1023.93 1023.97 1024.01 1023.97 1023.93 1023.89 1023.89 1023.93 1023.97 1024.05 1024.13 1024.13 1024.01 1023.93 1023.89 1023.93 1023.93 1023.89 1023.89 1023.93 1023.93 1023.89 1023.81 1023.73 1023.61 1023.53 1023.45 1023.45 1023.37 1023.33 1023.33 1023.33 1023.25
1023.81 1023.77 1023.77 1023.81 1023.81 1023.81 1023.81 1023.85 1023.85 1023.89 1023.89 1023.93 1024.01 1024.13 1024.25 1024.33 1024.37 1024.37 1024.33 1024.25 1024.21 1024.21 1024.21 1024.17 1024.17 1024.21 1024.25 1024.25 1024.17 1024.13 1024.09 1024.05 1024.05 1024.05 1024.05 1024.01 1023.97 1024.01 1024.01 1023.97 1023.89 1023.89 1023.89 1023.93 1023.93 1023.97 1023.97 1023.89 1023.81 1023.73 1023.73 1023.73 1023.69 1023.73 1023.73 1023.77 1023.81 1023.77 1023.73 1023.61 1023.57 1023.57 1023.57 1023.45 1023.45 1023.41 1023.33 1023.29 1023.17
1023.61 1023.65 1023.73 1023.77 1023.77 1023.77 1023.77 1023.77 1023.81 1023.89 1023.89 1023.93 1024.01 1024.13 1024.25 1024.37 1024.41 1024.37 1024.33 1024.25 1024.29 1024.29 1024.21 1024.17 1024.17 1024.25 1024.29 1024.25 1024.17 1024.17 1024.13 1024.13 1024.09 1024.05 1024.05 1024.01 1024.01 1024.01 1023.97 1023.93 1023.89 1023.85 1023.85 1023.85 1023.85 1023.77 1023.73 1023.69 1023.69 1023.69 1023.73 1023.73 1023.69 1023.73 1023.77 1023.85 1023.85 1023.81 1023.81 1023.73 1023.73 1023.69 1023.65 1023.61 1023.53 1023.45 1023.33 1023.29 1023.21
1023.49 1023.57 1023.61 1023.65 1023.73 1023.73 1023.69 1023.69 1023.73 1023.81 1023.89 1023.89 1023.97 1024.05 1024.17 1024.33 1024.33 1024.33 1024.33 1024.33 1024.33 1024.29 1024.21 1024.17 1024.21 1024.21 1024.25 1024.21 1024.17 1024.13 1024.13 1024.13 1024.13 1024.09 1024.05 1024.09 1024.05 1024.01 1023.93 1023.89 1023.89 1023.81 1023.73 1023.73 1023.73 1023.69 1023.69 1023.69 1023.73 1023.73 1023.73 1023.77 1023.77 1023.81 1023.89 1023.89 1023.89 1023.89 1023.89 1023.81 1023.73 1023.73 1023.65 1023.61 1023.53 1023.45 1023.33 1023.33 1023.21
1023.45 1023.49 1023.57 1023.61 1023.61 1023.65 1023.61 1023.61 1023.61 1023.65 1023.73 1023.77 1023.85 1023.93 1024.01 1024.13 1024.17 1024.25 1024.33 1024.37 1024.33 1024.25 1024.17 1024.17 1024.25 1024.25 1024.17 1024.17 1024.13 1024.13 1024.13 1024.13 1024.13 1024.17 1024.17 1024.09 1024.05 1024.01 1023.93 1023.93 1023.89 1023.81 1023.73 1023.73 1023.73 1023.73 1023.73 1023.73 1023.77 1023.81 1023.85 1023.85 1023.89 1023.89 1023.89 1023.93 1023.89 1023.89 1023.85 1023.81 1023.73 1023.65 1023.61 1023.49 1023.45 1023.41 1023.33 1023.21 1023.17
1023.41 1023.45 1023.53 1023.61 1023.61 1023.61 1023.57 1023.49 1023.53 1023.61 1023.65 1023.73 1023.81 1023.89 1023.93 1023.97 1024.05 1024.17 1024.29 1024.33 1024.29 1024.25 1024.21 1024.21 1024.25 1024.21 1024.17 1024.13 1024.09 1024.09 1024.13 1024.13 1024.17 1024.17 1024.17 1024.09 1024.01 1023.93 1023.89 1023.89 1023.85 1023.77 1023.73 1023.77 1023.89 1023.89 1023.89 1023.89 1023.89 1023.89 1023.89 1023.97 1024.01 1024.01 1023.97 1023.93 1023.89 1023.89 1023.81 1023.73 1023.69 1023.61 1023.53 1023.45 1023.45 1023.37 1023.29 1023.17 1023.09
1023.41 1023.45 1023.49 1023.57 1023.57 1023.53 1023.49 1023.49 1023.53 1023.61 1023.61 1023.69 1023.77 1023.85 1023.89 1023.89 1024.01 1024.17 1024.25 1024.29 1024.29 1024.25 1024.25 1024.25 1024.25 1024.17 1024.13 1024.09 1024.09 1024.09 1024.09 1024.13 1024.17 1024.17 1024.17 1024.01 1023.97 1023.89 1023.89 1023.85 1023.81 1023.81 1023.85 1023.89 1024.01 1024.09 1024.05 1024.01 1024.01 1024.01 1024.01 1024.05 1024.05 1024.05 1024.01 1023.97 1023.89 1023.85 1023.73 1023.65 1023.65 1023.57 1023.49 1023.45 1023.41 1023.33 1023.25 1023.17 1023.09
1023.45 1023.45 1023.53 1023.53 1023.53 1023.49 1023.45 1023.49 1023.49 1023.53 1023.61 1023.61 1023.73 1023.81 1023.89 1023.89 1023.97 1024.13 1024.25 1024.29 1024.33 1024.33 1024.29 1024.29 1024.21 1024.17 1024.17 1024.09 1024.09 1024.13 1024.17 1024.17 1024.17 1024.17 1024.05 1023.97 1023.89 1023.85 1023.81 1023.77 1023.81 1023.85 1023.93 1024.01 1024.17 1024.17 1024.17 1024.17 1024.13 1024.17 1024.17 1024.13 1024.13 1024.09 1024.01 1023.97 1023.89 1023.77 1023.73 1023.65 1023.61 1023.57 1023.53 1023.45 1023.45 1023.33 1023.25 1023.17 1023.09
1023.45 1023.49 1023.53 1023.53 1023.49 1023.45 1023.45 1023.45 1023.45 1023.49 1023.57 1023.61 1023.73 1023.81 1023.85 1023.89 1023.93 1024.09 1024.25 1024.33 1024.37 1024.33 1024.29 1024.25 1024.21 1024.17 1024.17 1024.17 1024.17 1024.17 1024.21 1024.21 1024.17 1024.05 1023.93 1023.81 1023.77 1023.73 1023.73 1023.73 1023.81 1023.89 1023.97 1024.05 1024.17 1024.17 1024.21 1024.17 1024.17 1024.17 1024.17 1024.17 1024.13 1024.05 1024.01 1023.93 1023.89 1023.81 1023.73 1023.73 1023.65 1023.61 1023.53 1023.49 1023.45 1023.33 1023.25 1023.17 1023.01
1023.45 1023.45 1023.45 1023.45 1023.49 1023.49 1023.45 1023.45 1023.49 1023.53 1023.53 1023.61 1023.73 1023.77 1023.81 1023.89 1023.93 1024.09 1024.25 1024.37 1024.37 1024.33 1024.33 1024.29 1024.25 1024.21 1024.21 1024.21 1024.25 1024.25 1024.25 1024.17 1024.09 1023.97 1023.85 1023.77 1023.73 1023.73 1023.73 1023.73 1023.81 1023.89 1023.93 1024.01 1024.05 1024.13 1024.13 1024.13 1024.17 1024.17 1024.17 1024.17 1024.17 1024.05 1024.01 1023.97 1023.89 1023.89 1023.81 1023.73 1023.73 1023.61 1023.53 1023.49 1023.37 1023.29 1023.17 1023.09 1022.97
1023.37 1023.45 1023.45 1023.45 1023.45 1023.49 1023.49 1023.53 1023.53 1023.57 1023.61 1023.61 1023.73 1023.73 1023.77 1023.89 1023.97 1024.09 1024.21 1024.33 1024.33 1024.33 1024.33 1024.33 1024.29 1024.25 1024.25 1024.25 1024.29 1024.29 1024.21 1024.13 1024.05 1023.93 1023.85 1023.77 1023.77 1023.77 1023.77 1023.73 1023.77 1023.81 1023.89 1023.89 1023.97 1024.01 1024.01 1024.09 1024.17 1024.21 1024.25 1024.25 1024.17 1024.13 1024.05 1024.01 1023.93 1023.89 1023.81 1023.73 1023.65 1023.61 1023.49 1023.41 1023.33 1023.21 1023.13 1023.01 1022.93
1023.33 1023.37 1023.41 1023.45 1023.45 1023.45 1023.49 1023.57 1023.57 1023.61 1023.61 1023.65 1023.69 1023.73 1023.81 1023.89 1023.97 1024.05 1024.17 1024.25 1024.33 1024.33 1024.33 1024.33 1024.33 1024.33 1024.29 1024.29 1024.29 1024.29 1024.21 1024.13 1024.05 1023.97 1023.89 1023.85 1023.81 1023.81 1023.81 1023.77 1023.77 1023.77 1023.85 1023.89 1023.89 1023.97 1024.01 1024.13 1024.17 1024.25 1024.29 1024.29 1024.25 1024.21 1024.17 1024.01 1023.89 1023.81 1023.73 1023.65 1023.57 1023.49 1023.41 1023.33 1023.25 1023.17 1023.09 1023.01 1022.89
1023.21 1023.29 1023.37 1023.45 1023.45 1023.49 1023.53 1023.57 1023.61 1023.61 1023.61 1023.69 1023.73 1023.73 1023.77 1023.89 1023.97 1024.05 1024.13 1024.17 1024.25 1024.33 1024.33 1024.33 1024.29 1024.25 1024.25 1024.25 1024.25 1024.21 1024.21 1024.17 1024.05 1024.01 1023.93 1023.89 1023.89 1023.85 1023.77 1023.77 1023.77 1023.81 1023.85 1023.85 1023.89 1023.97 1024.05 1024.17 1024.21 1024.29 1024.33 1024.33 1024.33 1024.29 1024.17 1024.05 1023.93 1023.77 1023.69 1023.61 1023.53 1023.45 1023.33 1023.29 1023.21 1023.17 1023.09 1023.01 1022.93
1023.17 1023.21 1023.33 1023.41 1023.45 1023.49 1023.53 1023.61 1023.61 1023.61 1023.61 1023.69 1023.69 1023.73 1023.73 1023.85 1023.93 1024.01 1024.01 1024.09 1024.17 1024.25 1024.29 1024.25 1024.21 1024.21 1024.21 1024.21 1024.17 1024.17 1024.13 1024.13 1024.09 1024.01 1023.97 1023.93 1023.89 1023.85 1023.81 1023.77 1023.85 1023.85 1023.85 1023.81 1023.85 1023.93 1024.05 1024.17 1024.29 1024.37 1024.45 1024.45 1024.45 1024.33 1024.21 1024.09 1023.93 1023.85 1023.73 1023.61 1023.49 1023.41 1023.33 1023.25 1023.17 1023.17 1023.09 1023.01 1022.93
1023.05 1023.17 1023.29 1023.37 1023.45 1023.49 1023.53 1023.61 1023.61 1023.61 1023.61 1023.65 1023.65 1023.69 1023.73 1023.81 1023.89 1023.93 1024.01 1024.01 1024.13 1024.17 1024.17 1024.17 1024.17 1024.17 1024.17 1024.17 1024.09 1024.05 1024.05 1024.05 1024.09 1024.01 1023.97 1023.89 1023.89 1023.85 1023.85 1023.85 1023.89 1023.81 1023.73 1023.73 1023.77 1023.89 1024.05 1024.17 1024.37 1024.49 1024.57 1024.61 1024.53 1024.41 1024.29 1024.13 1024.01 1023.89 1023.77 1023.65 1023.53 1023.41 1023.33 1023.21 1023.17 1023.09 1023.05 1023.01 1022.89
1022.93 1023.05 1023.17 1023.29 1023.37 1023.45 1023.53 1023.57 1023.61 1023.61 1023.61 1023.61 1023.61 1023.65 1023.73 1023.77 1023.81 1023.89 1023.93 1024.01 1024.05 1024.09 1024.13 1024.13 1024.13 1024.13 1024.13 1024.05 1024.01 1024.01 1024.01 1024.05 1024.09 1024.01 1023.93 1023.89 1023.85 1023.81 1023.85 1023.85 1023.77 1023.73 1023.65 1023.65 1023.77 1023.97 1024.17 1024.37 1024.53 1024.61 1024.65 1024.65 1024.57 1024.45 1024.33 1024.21 1024.09 1023.97 1023.85 1023.73 1023.57 1023.45 1023.33 1023.17 1023.13 1023.01 1022.97 1022.89 1022.81
1022.89 1023.01 1023.09 1023.17 1023.29 1023.41 1023.45 1023.53 1023.53 1023.49 1023.49 1023.49 1023.53 1023.57 1023.61 1023.69 1023.73 1023.77 1023.89 1023.93 1023.97 1024.01 1024.05 1024.13 1024.17 1024.09 1024.01 1024.01 1024.01 1024.01 1023.97 1023.97 1023.97 1023.89 1023.85 1023.77 1023.73 1023.73 1023.73 1023.73 1023.65 1023.61 1023.61 1023.81 1024.01 1024.25 1024.45 1024.57 1024.69 1024.73 1024.73 1024.69 1024.61 1024.49 1024.41 1024.37 1024.21 1024.05 1023.89 1023.73 1023.57 1023.45 1023.29 1023.17 1023.05 1022.97 1022.89 1022.81 1022.73
1022.85 1022.93 1023.01 1023.09 1023.21 1023.29 1023.33 1023.37 1023.37 1023.37 1023.37 1023.37 1023.45 1023.49 1023.57 1023.61 1023.65 1023.69 1023.73 1023.81 1023.89 1024.01 1024.09 1024.13 1024.09 1024.01 1023.89 1023.89 1023.89 1023.89 1023.89 1023.81 1023.73 1023.73 1023.73 1023.73 1023.73 1023.69 1023.69 1023.61 1023.57 1023.57 1023.73 1024.09 1024.53 1024.73 1024.77 1024.85 1024.85 1024.85 1024.85 1024.81 1024.73 1024.61 1024.57 1024.45 1024.33 1024.17 1023.93 1023.77 1023.61 1023.45 1023.29 1023.13 1023.01 1022.93 1022.81 1022.73 1022.69
1022.73 1022.89 1022.97 1023.01 1023.13 1023.17 1023.21 1023.25 1023.25 1023.29 1023.33 1023.33 1023.41 1023.45 1023.53 1023.57 1023.61 1023.61 1023.69 1023.77 1023.89 1024.01 1024.05 1024.01 1023.89 1023.77 1023.77 1023.85 1023.85 1023.81 1023.73 1023.69 1023.61 1023.65 1023.69 1023.69 1023.65 1023.69 1023.65 1023.61 1023.57 1023.61 1023.89 1024.49 1024.89 1025.05 1025.05 1025.09 1025.09 1025.05 1025.01 1024.97 1024.89 1024.77 1024.65 1024.57 1024.41 1024.21 1024.01 1023.85 1023.65 1023.45 1023.21 1023.05 1022.89 1022.81 1022.73 1022.65 1022.61
1022.69 1022.73 1022.89 1022.93 1023.01 1023.01 1023.09 1023.13 1023.17 1023.21 1023.29 1023.33 1023.37 1023.41 1023.45 1023.45 1023.53 1023.61 1023.69 1023.81 1023.89 1023.93 1023.89 1023.73 1023.61 1023.61 1023.73 1023.73 1023.73 1023.65 1023.57 1023.53 1023.49 1023.57 1023.61 1023.61 1023.61 1023.65 1023.65 1023.65 1023.61 1023.65 1024.01 1024.69 1024.97 1025.09 1025.17 1025.21 1025.25 1025.29 1025.21 1025.13 1025.01 1024.89 1024.73 1024.57 1024.41 1024.25 1024.05 1023.81 1023.61 1023.37 1023.17 1022.97 1022.81 1022.69 1022.61 1022.61 1022.61
1022.57 1022.61 1022.69 1022.77 1022.85 1022.89 1022.97 1023.01 1023.09 1023.13 1023.17 1023.21 1023.29 1023.33 1023.37 1023.45 1023.49 1023.61 1023.73 1023.77 1023.73 1023.69 1023.61 1023.49 1023.53 1023.61 1023.65 1023.61 1023.53 1023.41 1023.33 1023.33 1023.41 1023.49 1023.57 1023.61 1023.61 1023.61 1023.65 1023.65 1023.61 1023.77 1024.17 1024.73 1024.93 1025.01 1025.13 1025.17 1025.25 1025.33 1025.33 1025.25 1025.13 1025.01 1024.81 1024.61 1024.37 1024.17 1023.97 1023.69 1023.45 1023.25 1023.01 1022.85 1022.73 1022.61 1022.61 1022.61 1022.65
1022.37 1022.45 1022.53 1022.61 1022.69 1022.77 1022.85 1022.93 1023.01 1023.01 1023.09 1023.17 1023.21 1023.29 1023.37 1023.45 1023.57 1023.61 1023.65 1023.61 1023.53 1023.45 1023.37 1023.33 1023.37 1023.45 1023.45 1023.41 1023.33 1023.25 1023.21 1023.25 1023.33 1023.45 1023.49 1023.53 1023.61 1023.65 1023.69 1023.73 1023.69 1023.89 1024.33 1024.77 1024.89 1025.01 1025.09 1025.13 1025.17 1025.29 1025.37 1025.37 1025.25 1025.05 1024.85 1024.61 1024.33 1024.13 1023.85 1023.61 1023.33 1023.09 1022.89 1022.77 1022.69 1022.61 1022.61 1022.65 1022.73
1022.25 1022.29 1022.41 1022.45 1022.57 1022.65 1022.77 1022.89 1022.89 1022.97 1023.05 1023.13 1023.25 1023.33 1023.45 1023.53 1023.61 1023.57 1023.49 1023.41 1023.29 1023.21 1023.17 1023.21 1023.29 1023.33 1023.33 1023.29 1023.21 1023.17 1023.17 1023.17 1023.21 1023.29 1023.37 1023.45 1023.57 1023.61 1023.73 1023.81 1023.73 1023.97 1024.41 1024.81 1024.89 1024.89 1025.01 1025.09 1025.17 1025.29 1025.37 1025.41 1025.29 1025.09 1024.89 1024.61 1024.33 1024.01 1023.73 1023.45 1023.17 1022.93 1022.81 1022.73 1022.65 1022.65 1022.69 1022.77 1022.81
1022.09 1022.17 1022.25 1022.33 1022.45 1022.57 1022.69 1022.73 1022.81 1022.89 1023.01 1023.17 1023.33 1023.41 1023.49 1023.53 1023.49 1023.37 1023.29 1023.17 1023.09 1023.05 1023.09 1023.17 1023.17 1023.21 1023.21 1023.17 1023.13 1023.09 1023.09 1023.09 1023.13 1023.21 1023.33 1023.41 1023.53 1023.61 1023.73 1023.85 1023.77 1023.93 1024.33 1024.77 1024.77 1024.85 1024.97 1025.09 1025.21 1025.29 1025.33 1025.37 1025.33 1025.13 1024.89 1024.61 1024.29 1023.97 1023.61 1023.33 1023.01 1022.85 1022.73 1022.73 1022.69 1022.73 1022.77 1022.85 1022.89
1021.97 1022.05 1022.17 1022.25 1022.33 1022.45 1022.57 1022.65 1022.73 1022.89 1023.05 1023.25 1023.37 1023.45 1023.45 1023.33 1023.25 1023.17 1023.09 1023.01 1023.01 1023.01 1023.09 1023.17 1023.13 1023.13 1023.09 1023.05 1023.01 1023.01 1023.01 1023.01 1023.05 1023.17 1023.29 1023.45 1023.57 1023.65 1023.73 1023.77 1023.73 1023.85 1024.29 1024.77 1024.77 1024.89 1025.01 1025.13 1025.17 1025.25 1025.29 1025.33 1025.25 1025.05 1024.81 1024.53 1024.17 1023.85 1023.49 1023.17 1022.97 1022.89 1022.85 1022.81 1022.81 1022.81 1022.85 1022.89 1022.93
1021.89 1021.93 1022.01 1022.09 1022.17 1022.29 1022.45 1022.57 1022.65 1022.85 1023.01 1023.21 1023.33 1023.33 1023.21 1023.13 1023.05 1023.01 1022.97 1022.93 1022.93 1022.97 1023.01 1023.01 1023.01 1023.01 1022.97 1022.93 1022.97 1022.97 1023.01 1023.01 1023.13 1023.25 1023.33 1023.45 1023.57 1023.61 1023.73 1023.73 1023.61 1023.89 1024.37 1024.73 1024.85 1024.93 1025.05 1025.13 1025.17 1025.17 1025.21 1025.29 1025.17 1024.97 1024.69 1024.33 1024.01 1023.65 1023.33 1023.13 1023.01 1022.93 1022.93 1022.93 1022.89 1022.89 1022.89 1022.93 1023.01
1021.73 1021.81 1021.89 1021.97 1022.05 1022.17 1022.29 1022.45 1022.61 1022.77 1022.97 1023.09 1023.13 1023.05 1022.97 1022.89 1022.85 1022.85 1022.81 1022.85 1022.89 1022.93 1022.97 1022.97 1022.93 1022.89 1022.85 1022.89 1022.89 1023.01 1023.05 1023.17 1023.21 1023.33 1023.45 1023.53 1023.57 1023.61 1023.69 1023.73 1023.61 1024.01 1024.61 1024.73 1024.89 1024.97 1025.01 1025.05 1025.09 1025.13 1025.17 1025.21 1025.05 1024.77 1024.45 1024.09 1023.73 1023.49 1023.33 1023.17 1023.05 1023.01 1023.01 1022.97 1022.93 1022.93 1022.93 1022.97 1023.01
1021.61 1021.73 1021.81 1021.89 1022.01 1022.09 1022.21 1022.37 1022.53 1022.69 1022.77 1022.81 1022.81 1022.77 1022.73 1022.73 1022.73 1022.73 1022.73 1022.73 1022.81 1022.89 1022.93 1022.89 1022.89 1022.81 1022.81 1022.89 1022.93 1023.01 1023.17 1023.29 1023.37 1023.45 1023.49 1023.53 1023.57 1023.65 1023.73 1023.73 1023.61 1024.09 1024.65 1024.69 1024.81 1024.89 1024.97 1025.01 1025.01 1025.09 1025.13 1025.13 1024.89 1024.57 1024.17 1023.89 1023.61 1023.45 1023.33 1023.17 1023.13 1023.05 1023.01 1023.01 1022.97 1022.93 1022.93 1022.93 1022.97
1021.53 1021.61 1021.73 1021.85 1021.93 1022.05 1022.17 1022.33 1022.45 1022.53 1022.57 1022.57 1022.53 1022.57 1022.61 1022.61 1022.61 1022.61 1022.61 1022.69 1022.73 1022.81 1022.81 1022.81 1022.73 1022.73 1022.73 1022.81 1022.89 1023.01 1023.17 1023.29 1023.37 1023.45 1023.49 1023.57 1023.61 1023.69 1023.73 1023.73 1023.65 1024.13 1024.65 1024.61 1024.73 1024.85 1024.89 1024.97 1025.01 1025.09 1025.13 1025.01 1024.69 1024.33 1024.01 1023.73 1023.57 1023.45 1023.33 1023.21 1023.13 1023.01 1023.01 1022.93 1022.89 1022.85 1022.85 1022.85 1022.89
1021.37 1021.53 1021.65 1021.77 1021.93 1022.09 1022.21 1022.29 1022.33 1022.33 1022.33 1022.37 1022.37 1022.37 1022.41 1022.45 1022.45 1022.45 1022.53 1022.61 1022.65 1022.73 1022.73 1022.69 1022.61 1022.61 1022.61 1022.65 1022.81 1022.93 1023.01 1023.13 1023.25 1023.33 1023.45 1023.57 1023.61 1023.69 1023.73 1023.73 1023.61 1024.09 1024.57 1024.61 1024.69 1024.77 1024.85 1024.93 1025.01 1025.05 1025.01 1024.89 1024.53 1024.17 1023.93 1023.73 1023.57 1023.45 1023.33 1023.21 1023.09 1022.97 1022.89 1022.85 1022.77 1022.73 1022.73 1022.73 1022.73
1021.25 1021.41 1021.57 1021.73 1021.89 1022.01 1022.09 1022.17 1022.17 1022.17 1022.21 1022.25 1022.25 1022.25 1022.29 1022.29 1022.33 1022.37 1022.45 1022.49 1022.53 1022.57 1022.57 1022.53 1022.45 1022.45 1022.45 1022.53 1022.65 1022.81 1022.89 1023.01 1023.13 1023.25 1023.41 1023.53 1023.61 1023.65 1023.65 1023.69 1023.65 1023.89 1024.29 1024.61 1024.69 1024.73 1024.77 1024.89 1024.97 1025.01 1024.97 1024.73 1024.45 1024.17 1023.89 1023.73 1023.61 1023.45 1023.33 1023.21 1023.01 1022.89 1022.81 1022.73 1022.69 1022.61 1022.57 1022.57 1022.61
1021.17 1021.33 1021.45 1021.65 1021.73 1021.85 1021.93 1022.01 1022.05 1022.09 1022.13 1022.09 1022.13 1022.17 1022.17 1022.21 1022.21 1022.25 1022.29 1022.41 1022.45 1022.41 1022.41 1022.41 1022.33 1022.29 1022.37 1022.45 1022.61 1022.73 1022.89 1023.01 1023.09 1023.17 1023.33 1023.45 1023.53 1023.61 1023.61 1023.69 1023.73 1023.77 1024.01 1024.53 1024.65 1024.73 1024.73 1024.85 1024.93 1025.01 1024.93 1024.73 1024.45 1024.17 1023.93 1023.73 1023.61 1023.49 1023.33 1023.17 1023.01 1022.85 1022.73 1022.69 1022.61 1022.49 1022.45 1022.45 1022.49
1021.17 1021.33 1021.45 1021.57 1021.61 1021.73 1021.77 1021.85 1021.89 1021.93 1021.97 1021.93 1021.97 1022.01 1022.01 1022.05 1022.09 1022.13 1022.17 1022.29 1022.33 1022.33 1022.33 1022.29 1022.29 1022.25 1022.29 1022.45 1022.61 1022.73 1022.89 1022.93 1023.01 1023.09 1023.17 1023.33 1023.45 1023.57 1023.69 1023.73 1023.81 1023.77 1023.93 1024.45 1024.61 1024.69 1024.73 1024.85 1024.89 1024.97 1024.89 1024.73 1024.45 1024.21 1024.01 1023.81 1023.61 1023.49 1023.33 1023.17 1023.01 1022.85 1022.73 1022.69 1022.61 1022.45 1022.37 1022.29 1022.33
1021.21 1021.33 1021.41 1021.45 1021.53 1021.61 1021.65 1021.69 1021.69 1021.73 1021.77 1021.77 1021.81 1021.85 1021.89 1021.93 1021.97 1022.05 1022.17 1022.25 1022.29 1022.29 1022.29 1022.25 1022.21 1022.25 1022.29 1022.45 1022.61 1022.69 1022.77 1022.81 1022.89 1022.93 1023.05 1023.17 1023.33 1023.57 1023.73 1023.81 1023.81 1023.77 1023.89 1024.33 1024.57 1024.65 1024.69 1024.77 1024.85 1024.89 1024.89 1024.69 1024.49 1024.25 1024.01 1023.85 1023.65 1023.45 1023.33 1023.17 1023.01 1022.89 1022.81 1022.73 1022.61 1022.45 1022.29 1022.17 1022.13
1021.29 1021.37 1021.45 1021.45 1021.53 1021.57 1021.61 1021.57 1021.57 1021.61 1021.65 1021.73 1021.73 1021.73 1021.81 1021.89 1021.97 1022.01 1022.13 1022.17 1022.17 1022.17 1022.17 1022.17 1022.13 1022.17 1022.29 1022.45 1022.57 1022.61 1022.65 1022.73 1022.81 1022.89 1023.01 1023.13 1023.21 1023.45 1023.61 1023.65 1023.69 1023.69 1023.73 1024.05 1024.41 1024.57 1024.61 1024.69 1024.73 1024.81 1024.81 1024.73 1024.53 1024.33 1024.09 1023.85 1023.65 1023.45 1023.29 1023.17 1023.13 1023.05 1022.93 1022.77 1022.61 1022.45 1022.29 1022.13 1022.01
Thickness
5525 5521 5519 5516 5514 5513 5510 5508 5505 5503 5502 5500 5499 5496 5495 5493 5491 5489 5487 5486 5483 5481 5478 5475 5472 5470 5467 5465 5463 5460 5458 5456 5453 5450 5447 5445 5443 5440 5437 5434 5430 5427 5424 5420 5416 5412 5409 5405 5400 5397 5392 5388 5384 5380 5374 5369 5366 5362 5358 5353 5349 5345 5341 5337 5332 5327 5324 5320 5316
5522 5520 5516 5513 5511 5509 5507 5505 5503 5501 5499 5497 5496 5494 5492 5490 5488 5486 5484 5482 5479 5477 5474 5471 5468 5466 5464 5461 5459 5456 5454 5452 5450 5447 5444 5442 5439 5436 5433 5429 5426 5422 5418 5414 5411 5407 5402 5397 5393 5389 5385 5381 5377 5373 5368 5363 5359 5356 5352 5348 5343 5338 5334 5330 5325 5321 5317 5314 5310
5519 5517 5514 5512 5510 5507 5505 5503 5501 5499 5497 5495 5492 5490 5488 5486 5485 5482 5480 5478 5475 5473 5470 5467 5464 5462 5459 5457 5454 5452 5450 5448 5446 5442 5441 5437 5435 5431 5428 5424 5420 5416 5412 5408 5405 5401 5396 5391 5387 5383 5380 5376 5372 5369 5364 5360 5354 5350 5345 5341 5336 5331 5327 5322 5318 5314 5310 5307 5303
5515 5513 5511 5509 5506 5503 5502 5500 5498 5495 5493 5491 5489 5487 5485 5483 5480 5479 5476 5474 5472 5469 5466 5463 5460 5458 5455 5453 5451 5448 5446 5444 5441 5439 5436 5434 5430 5427 5423 5418 5415 5411 5407 5403 5399 5395 5391 5386 5382 5379 5375 5371 5368 5364 5359 5355 5349 5343 5338 5332 5327 5322 5318 5314 5311 5307 5305 5301 5298
5512 5509 5507 5504 5502 5500 5498 5497 5495 5492 5490 5488 5486 5484 5482 5479 5477 5474 5473 5470 5468 5465 5462 5459 5457 5454 5451 5449 5447 5445 5442 5440 5437 5434 5432 5428 5425 5421 5417 5413 5410 5406 5402 5398 5394 5390 5386 5382 5377 5373 5369 5365 5361 5357 5353 5348 5342 5335 5329 5323 5318 5315 5311 5309 5305 5302 5300 5297 5294
5509 5506 5503 5501 5499 5498 5496 5494 5492 5490 5487 5485 5483 5481 5478 5475 5473 5471 5468 5466 5464 5461 5458 5456 5453 5450 5447 5445 5443 5441 5438 5436 5432 5430 5427 5424 5419 5416 5412 5409 5404 5401 5397 5393 5389 5385 5379 5375 5371 5367 5362 5357 5353 5349 5344 5339 5334 5328 5323 5318 5313 5310 5307 5304 5301 5298 5295 5293 5290
5506 5504 5501 5499 5497 5495 5493 5491 5488 5486 5484 5482 5480 5477 5474 5472 5469 5467 5464 5462 5460 5457 5454 5453 5450 5447 5444 5442 5439 5437 5434 5431 5428 5425 5422 5419 5415 5411 5407 5403 5400 5396 5392 5388 5384 5378 5373 5369 5366 5362 5358 5352 5348 5343 5338 5333 5328 5323 5319 5315 5311 5307 5303 5300 5297 5293 5291 5288 5287
5504 5501 5499 5497 5495 5493 5491 5488 5486 5484 5482 5480 5477 5474 5471 5467 5465 5463 5461 5459 5456 5454 5452 5449 5446 5444 5441 5438 5435 5433 5430 5427 5423 5420 5417 5414 5411 5406 5402 5398 5395 5391 5387 5383 5379 5374 5369 5365 5362 5359 5355 5350 5345 5339 5334 5328 5323 5318 5313 5310 5306 5302 5298 5295 5292 5289 5286 5285 5283
5501 5499 5497 5495 5492 5490 5488 5486 5484 5481 5479 5477 5474 5471 5468 5465 5462 5459 5457 5455 5453 5450 5448 5445 5443 5440 5437 5434 5431 5429 5426 5422 5419 5415 5412 5409 5406 5402 5398 5394 5390 5386 5382 5378 5374 5370 5367 5362 5358 5353 5348 5344 5340 5334 5328 5322 5317 5312 5307 5303 5299 5296 5292 5289 5287 5285 5283 5281 5280
5500 5497 5494 5492 5489 5487 5486 5484 5481 5479 5477 5474 5471 5468 5465 5462 5459 5457 5454 5452 5448 5446 5444 5442 5439 5436 5433 5430 5427 5425 5421 5418 5415 5411 5407 5403 5401 5397 5394 5390 5386 5382 5378 5374 5370 5366 5362 5357 5353 5348 5343 5338 5333 5327 5321 5315 5310 5306 5302 5297 5294 5291 5288 5285 5284 5282 5279 5278 5276
5497 5494 5491 5489 5486 5484 5483 5481 5479 5477 5474 5472 5469 5466 5463 5460 5457 5454 5450 5447 5445 5443 5440 5438 5435 5432 5429 5427 5424 5420 5417 5413 5410 5407 5403 5400 5396 5393 5389 5385 5382 5379 5375 5371 5366 5362 5357 5352 5348 5343 5337 5331 5326 5320 5315 5310 5305 5301 5297 5293 5290 5287 5285 5282 5280 5278 5277 5275 5273
5493 5491 5488 5487 5484 5482 5480 5479 5476 5474 5472 5469 5466 5463 5460 5458 5455 5451 5447 5444 5441 5439 5436 5433 5431 5428 5426 5422 5420 5417 5413 5410 5406 5401 5399 5396 5392 5389 5384 5381 5377 5374 5370 5365 5361 5356 5351 5347 5342 5337 5332 5325 5320 5314 5309 5305 5300 5296 5293 5289 5286 5284 5282 5279 5277 5275 5273 5272 5270
5491 5488 5485 5483 5481 5479 5477 5475 5473 5471 5468 5466 5463 5460 5457 5454 5451 5447 5443 5440 5438 5435 5432 5429 5426 5424 5422 5419 5415 5412 5409 5405 5401 5398 5394 5391 5388 5384 5381 5377 5373 5370 5365 5360 5355 5350 5346 5341 5336 5331 5326 5320 5314 5309 5304 5300 5296 5292 5289 5286 5283 5280 5278 5276 5274 5272 5270 5269 5268
5487 5484 5483 5480 5478 5476 5475 5473 5470 5468 5465 5462 5460 5456 5454 5450 5447 5444 5440 5436 5433 5431 5428 5425 5423 5420 5417 5415 5411 5408 5404 5401 5397 5393 5390 5387 5384 5381 5377 5373 5369 5365 5359 5355 5349 5345 5340 5335 5331 5325 5320 5315 5309 5304 5299 5295 5292 5288 5286 5283 5280 5277 5274 5273 5270 5269 5267 5266 5264
5484 5482 5479 5477 5475 5474 5472 5470 5467 5464 5462 5459 5456 5453 5450 5447 5444 5441 5436 5433 5429 5427 5424 5422 5419 5416 5413 5410 5408 5404 5399 5396 5393 5390 5387 5383 5379 5376 5373 5369 5364 5360 5355 5350 5344 5339 5334 5330 5326 5321 5315 5309 5304 5300 5295 5291 5287 5284 5282 5278 5277 5274 5271 5270 5268 5266 5264 5263 5262
5481 5479 5476 5474 5473 5471 5469 5466 5464 5461 5458 5455 5452 5449 5446 5443 5440 5436 5433 5429 5426 5423 5421 5418 5415 5412 5409 5405 5402 5399 5396 5392 5389 5386 5383 5379 5376 5372 5368 5364 5360 5355 5350 5345 5339 5334 5329 5324 5320 5315 5310 5305 5300 5294 5291 5287 5283 5280 5277 5275 5272 5270 5268 5266 5265 5263 5261 5260 5259
5478 5476 5474 5472 5469 5467 5465 5463 5460 5457 5455 5451 5448 5446 5443 5439 5436 5432 5429 5426 5423 5420 5417 5414 5411 5409 5406 5401 5398 5395 5392 5388 5384 5381 5379 5375 5371 5367 5363 5359 5355 5351 5346 5341 5335 5330 5324 5319 5313 5308 5303 5299 5294 5290 5287 5283 5279 5276 5274 5271 5269 5267 5265 5263 5262 5261 5259 5257 5256
5476 5473 5471 5468 5467 5465 5462 5459 5456 5453 5451 5448 5445 5442 5439 5436 5432 5429 5426 5422 5420 5417 5413 5410 5407 5404 5401 5398 5394 5390 5387 5384 5380 5377 5373 5370 5366 5363 5359 5355 5351 5346 5341 5336 5330 5325 5319 5314 5308 5303 5298 5293 5289 5286 5282 5279 5276 5273 5271 5269 5267 5265 5263 5261 5259 5258 5256 5254 5253
5474 5471 5468 5466 5463 5461 5458 5455 5452 5450 5447 5444 5441 5438 5436 5432 5429 5425 5422 5419 5416 5413 5410 5406 5403 5400 5397 5394 5390 5386 5382 5380 5376 5372 5369 5365 5362 5358 5355 5350 5346 5341 5336 5331 5326 5320 5314 5308 5304 5298 5293 5289 5284 5281 5277 5275 5273 5271 5268 5266 5264 5262 5260 5259 5256 5255 5253 5251 5250
5471 5468 5466 5463 5460 5457 5454 5452 5449 5446 5444 5441 5438 5435 5432 5429 5426 5422 5419 5416 5412 5409 5406 5403 5400 5397 5393 5390 5385 5382 5378 5374 5371 5368 5364 5361 5358 5354 5350 5346 5341 5336 5331 5326 5321 5315 5309 5304 5299 5293 5288 5283 5280 5276 5273 5270 5269 5267 5265 5263 5261 5259 5257 5256 5253 5252 5250 5248 5246
5469 5466 5463 5460 5457 5454 5451 5448 5445 5443 5440 5438 5435 5432 5429 5426 5423 5419 5416 5412 5409 5405 5402 5399 5396 5392 5389 5385 5381 5378 5373 5369 5366 5363 5360 5357 5353 5350 5346 5341 5337 5332 5328 5322 5317 5311 5305 5299 5293 5288 5282 5278 5274 5271 5269 5267 5265 5263 5261 5259 5258 5256 5254 5253 5251 5249 5247 5245 5244
5466 5464 5460 5457 5454 5451 5448 5445 5443 5440 5437 5435 5432 5430 5426 5423 5420 5417 5412 5409 5405 5402 5399 5395 5392 5388 5385 5381 5378 5374 5369 5365 5362 5359 5356 5353 5349 5346 5341 5337 5333 5329 5325 5319 5313 5306 5299 5293 5287 5282 5277 5274 5270 5267 5265 5263 5261 5259 5257 5256 5255 5254 5252 5250 5249 5247 5245 5244 5242
5464 5461 5457 5455 5451 5448 5445 5442 5440 5437 5435 5432 5430 5426 5423 5420 5416 5413 5409 5406 5402 5399 5395 5391 5387 5384 5381 5377 5373 5370 5366 5362 5358 5355 5352 5349 5345 5341 5337 5332 5329 5325 5321 5314 5307 5300 5294 5288 5282 5277 5273 5269 5266 5264 5261 5258 5257 5255 5254 5253 5251 5251 5249 5248 5246 5244 5243 5241 5240
5461 5457 5454 5452 5449 5446 5443 5440 5438 5435 5432 5429 5426 5423 5420 5416 5413 5410 5406 5402 5399 5395 5391 5386 5383 5381 5377 5374 5369 5367 5363 5360 5356 5352 5348 5344 5340 5337 5333 5328 5325 5321 5315 5307 5299 5292 5287 5282 5278 5273 5269 5265 5262 5259 5257 5254 5253 5252 5251 5249 5249 5248 5247 5246 5244 5243 5242 5240 5238
5458 5455 5452 5449 5446 5443 5440 5438 5435 5432 5430 5426 5422 5420 5416 5413 5410 5406 5402 5398 5394 5390 5386 5383 5380 5377 5374 5370 5366 5363 5360 5357 5354 5350 5345 5340 5336 5332 5328 5324 5321 5316 5309 5300 5292 5286 5281 5276 5272 5268 5264 5260 5258 5255 5253 5251 5249 5248 5247 5247 5246 5245 5245 5244 5243 5242 5240 5238 5236
5456 5453 5450 5447 5444 5441 5438 5435 5432 5430 5426 5423 5420 5416 5413 5409 5406 5402 5398 5394 5390 5387 5383 5381 5379 5375 5370 5366 5363 5360 5357 5354 5351 5347 5342 5337 5332 5327 5323 5320 5316 5311 5304 5294 5287 5282 5277 5272 5267 5263 5260 5256 5254 5252 5250 5248 5247 5246 5245 5244 5244 5244 5243 5243 5242 5240 5238 5236 5234
5453 5451 5447 5444 5442 5439 5435 5432 5429 5426 5423 5420 5417 5413 5409 5406 5402 5398 5394 5390 5387 5384 5381 5379 5375 5371 5366 5363 5360 5358 5354 5351 5346 5342 5337 5333 5328 5324 5319 5315 5311 5306 5299 5290 5283 5278 5273 5268 5264 5259 5255 5253 5250 5248 5247 5246 5244 5244 5243 5243 5242 5242 5241 5241 5240 5239 5236 5234 5232
5451 5449 5446 5442 5439 5436 5433 5429 5426 5423 5420 5416 5413 5410 5405 5402 5398 5394 5390 5387 5384 5382 5379 5376 5372 5368 5364 5360 5357 5354 5351 5347 5343 5338 5333 5329 5324 5320 5315 5310 5306 5301 5293 5286 5280 5274 5269 5265 5261 5256 5252 5249 5247 5245 5244 5243 5243 5242 5242 5241 5241 5241 5240 5239 5238 5236 5234 5231 5229
5450 5446 5443 5440 5437 5434 5430 5426 5424 5420 5417 5413 5409 5405 5401 5397 5394 5390 5387 5385 5382 5380 5376 5372 5368 5363 5359 5356 5353 5350 5346 5343 5339 5335 5330 5325 5320 5315 5310 5306 5302 5295 5289 5281 5276 5270 5266 5262 5257 5253 5249 5246 5244 5243 5242 5241 5240 5241 5241 5240 5240 5240 5239 5238 5236 5234 5231 5229 5225
5447 5444 5441 5438 5434 5431 5428 5424 5421 5417 5413 5409 5405 5401 5397 5393 5390 5388 5385 5382 5380 5376 5373 5369 5365 5361 5356 5353 5350 5346 5343 5339 5335 5330 5326 5321 5316 5311 5306 5301 5298 5292 5285 5276 5272 5268 5263 5258 5254 5251 5247 5243 5241 5240 5239 5239 5239 5239 5239 5240 5239 5238 5237 5235 5233 5231 5228 5225 5223
5445 5442 5438 5435 5432 5429 5426 5422 5418 5414 5409 5405 5401 5397 5393 5391 5388 5386 5383 5380 5376 5372 5368 5365 5361 5358 5354 5350 5346 5343 5339 5335 5330 5326 5321 5316 5311 5306 5301 5297 5294 5289 5281 5273 5269 5264 5260 5255 5252 5248 5245 5241 5239 5238 5237 5237 5237 5237 5238 5238 5237 5237 5235 5233 5230 5227 5225 5223 5220
5443 5440 5436 5433 5430 5427 5423 5419 5416 5411 5406 5401 5397 5394 5391 5389 5386 5383 5380 5377 5374 5369 5365 5361 5357 5354 5351 5347 5343 5339 5334 5330 5326 5320 5316 5311 5306 5301 5297 5292 5290 5285 5277 5270 5265 5260 5256 5252 5249 5246 5242 5240 5237 5236 5236 5236 5237 5237 5237 5236 5235 5234 5232 5229 5227 5225 5223 5220 5217
5441 5438 5434 5431 5427 5424 5420 5416 5412 5408 5403 5399 5395 5393 5390 5387 5384 5380 5377 5373 5370 5366 5362 5358 5355 5352 5348 5344 5340 5335 5330 5325 5320 5316 5310 5306 5302 5297 5293 5289 5286 5280 5272 5267 5261 5257 5253 5250 5247 5243 5240 5238 5236 5236 5236 5236 5236 5236 5235 5234 5233 5231 5229 5226 5225 5222 5220 5218 5215
5438 5435 5432 5428 5425 5421 5416 5413 5408 5404 5400 5397 5394 5391 5388 5385 5382 5378 5374 5370 5366 5362 5358 5355 5352 5349 5345 5341 5337 5332 5327 5321 5316 5311 5307 5302 5298 5293 5289 5285 5282 5275 5268 5264 5258 5254 5251 5248 5245 5242 5239 5236 5235 5235 5235 5235 5235 5235 5234 5232 5230 5228 5227 5224 5222 5221 5218 5216 5214
5436 5433 5429 5425 5421 5417 5413 5409 5405 5401 5398 5395 5392 5389 5385 5382 5379 5375 5371 5367 5362 5358 5354 5351 5348 5345 5342 5338 5333 5328 5324 5319 5314 5308 5304 5299 5294 5289 5285 5281 5279 5272 5265 5261 5256 5252 5249 5246 5243 5240 5237 5236 5235 5235 5236 5235 5234 5233 5231 5230 5229 5227 5225 5223 5221 5219 5217 5215 5213
5433 5430 5426 5422 5417 5413 5409 5405 5402 5398 5395 5393 5390 5386 5382 5378 5375 5371 5368 5364 5360 5355 5351 5348 5346 5342 5338 5335 5330 5325 5320 5316 5311 5306 5301 5295 5290 5286 5282 5278 5275 5269 5262 5259 5254 5251 5247 5244 5241 5238 5235 5234 5234 5234 5234 5233 5232 5231 5229 5228 5227 5225 5224 5222 5220 5218 5216 5214 5212
5431 5427 5423 5419 5415 5410 5407 5402 5399 5396 5392 5389 5386 5383 5379 5376 5372 5367 5364 5360 5356 5352 5348 5345 5342 5339 5335 5331 5326 5321 5316 5312 5308 5303 5297 5292 5287 5283 5279 5275 5271 5267 5261 5256 5252 5248 5245 5242 5239 5236 5234 5233 5233 5233 5232 5232 5230 5229 5228 5226 5225 5224 5223 5221 5219 5217 5216 5214 5212
5428 5423 5419 5415 5411 5407 5404 5399 5396 5393 5390 5386 5382 5379 5376 5372 5369 5365 5361 5357 5353 5349 5346 5341 5338 5335 5332 5327 5322 5317 5311 5307 5304 5299 5294 5289 5284 5280 5276 5272 5267 5264 5260 5253 5250 5246 5243 5240 5237 5234 5233 5232 5232 5232 5231 5230 5229 5228 5226 5225 5224 5223 5221 5220 5218 5216 5215 5213 5211
5424 5420 5416 5412 5408 5404 5400 5397 5393 5390 5387 5383 5380 5376 5373 5369 5365 5361 5357 5353 5349 5346 5343 5339 5335 5331 5327 5323 5318 5313 5308 5303 5300 5296 5292 5287 5282 5277 5273 5268 5264 5261 5257 5251 5247 5244 5241 5239 5236 5233 5231 5230 5230 5229 5229 5228 5227 5226 5225 5224 5224 5222 5220 5219 5217 5215 5214 5213 5211
5419 5416 5411 5408 5404 5401 5397 5393 5390 5386 5384 5380 5377 5373 5369 5366 5361 5358 5353 5349 5346 5342 5339 5336 5332 5328 5323 5319 5314 5310 5305 5300 5296 5293 5289 5284 5280 5274 5269 5265 5261 5259 5255 5250 5245 5242 5240 5236 5234 5232 5230 5229 5228 5228 5227 5226 5225 5225 5224 5223 5222 5220 5218 5217 5215 5214 5213 5212 5211
5415 5411 5407 5403 5400 5397 5393 5390 5387 5383 5380 5376 5373 5370 5366 5362 5358 5354 5350 5345 5342 5338 5336 5332 5329 5325 5320 5315 5311 5307 5303 5298 5293 5289 5285 5281 5276 5272 5267 5263 5260 5257 5253 5249 5245 5241 5239 5236 5233 5230 5228 5227 5226 5225 5225 5225 5224 5224 5223 5221 5219 5217 5216 5215 5214 5213 5212 5210 5210